This is the latest recevied weather packets stored in our database for station/object WC4PEM-13. If no packets are shown the sender has not sent any weather packets the latest 10 day(s).
| Time | Temp. | Humidity | Pressure | Rain* | Wind** | Luminosity | Snow |
|---|---|---|---|---|---|---|---|
| 1777672958 | 32.78° C | 45% | 1008.6 hPa | 0 mm | - | - | - |
| 1777672658 | 32.78° C | 46% | 1008.8 hPa | 0 mm | - | - | - |
| 1777672358 | 32.22° C | 46% | 1008.9 hPa | 0 mm | - | - | - |
| 1777672058 | 32.22° C | 48% | 1008.8 hPa | 0 mm | - | - | - |
| 1777671758 | 32.22° C | 48% | 1008.8 hPa | 0 mm | - | - | - |
| 1777671458 | 32.78° C | 47% | 1008.8 hPa | 0 mm | - | - | - |
| 1777671158 | 32.78° C | 46% | 1008.8 hPa | 0 mm | - | - | - |
| 1777670858 | 32.78° C | 44% | 1008.9 hPa | 0 mm | - | - | - |
| 1777670558 | 33.33° C | 44% | 1008.8 hPa | 0 mm | - | - | - |
| 1777670258 | 33.33° C | 44% | 1008.7 hPa | 0 mm | - | - | - |
| 1777669958 | 33.89° C | 43% | 1008.8 hPa | 0 mm | - | - | - |
| 1777669658 | 33.89° C | 46% | 1008.7 hPa | 0 mm | - | - | - |
| 1777669358 | 33.89° C | 44% | 1009 hPa | 0 mm | - | - | - |
| 1777669058 | 34.44° C | 43% | 1009 hPa | 0 mm | - | - | - |
| 1777668758 | 34.44° C | 42% | 1008.8 hPa | 0 mm | - | - | - |
| 1777668458 | 33.89° C | 44% | 1008.8 hPa | 0 mm | - | - | - |
| 1777668158 | 33.89° C | 47% | 1008.9 hPa | 0 mm | - | - | - |
| 1777667858 | 33.89° C | 43% | 1009.1 hPa | 0 mm | - | - | - |
| 1777667558 | 33.89° C | 46% | 1009.2 hPa | 0 mm | - | - | - |
| 1777667258 | 33.89° C | 43% | 1009.3 hPa | 0 mm | - | - | - |
| 1777666958 | 33.89° C | 43% | 1009.2 hPa | 0 mm | - | - | - |
| 1777666658 | 33.89° C | 44% | 1009.1 hPa | 0 mm | - | - | - |
| 1777666358 | 33.89° C | 47% | 1009.3 hPa | 0 mm | - | - | - |
| 1777666058 | 33.89° C | 46% | 1009.5 hPa | 0 mm | - | - | - |
| 1777665758 | 33.89° C | 46% | 1009.6 hPa | 0 mm | - | - | - |
* Rain latest hour (hover to see other rain measurements)
** Current wind speed in m/s (hover to see current wind gust speed)